Time,TemperatureF,DewpointF,PressureIn,WindDirection,WindDirectionDegrees,WindSpeedMPH,WindSpeedGustMPH,Humidity,HourlyPrecipIn,Conditions,Clouds,dailyrainin,SoftwareType,DateUTC
2013-05-14 00:00:00,66.5,38.1,30.10,SSW,202,0.0,0.0,35,0.00,,---,0.00,VWS V14.01,2013-05-14 06:00:00,
2013-05-14 00:01:00,67.9,40.5,30.11,SSW,202,0.0,0.0,37,0.00,,---,0.00,VWS V14.01,2013-05-14 06:01:00,
2013-05-14 00:02:00,67.9,40.5,30.11,SSW,202,0.0,0.0,37,0.00,,---,0.00,VWS V14.01,2013-05-14 06:02:00,
2013-05-14 00:03:00,67.9,40.5,30.11,SSW,202,0.0,0.0,37,0.00,,---,0.00,VWS V14.01,2013-05-14 06:03:00,
2013-05-14 00:04:00,68.0,40.6,30.11,SSW,202,0.0,0.0,37,0.00,,---,0.00,VWS V14.01,2013-05-14 06:04:00,
2013-05-14 00:05:00,65.3,37.8,30.10,SSW,202,0.0,0.0,36,0.00,,---,0.00,VWS V14.01,2013-05-14 06:05:00,
2013-05-14 00:06:00,67.9,40.5,30.11,SSW,202,0.0,0.0,37,0.00,,---,0.00,VWS V14.01,2013-05-14 06:06:00,
2013-05-14 00:07:00,67.9,40.8,30.11,SSW,202,0.0,0.0,37,0.00,,---,0.00,VWS V14.01,2013-05-14 06:07:00,
2013-05-14 00:08:00,67.8,40.0,30.11,SSW,202,0.0,0.0,36,0.00,,---,0.00,VWS V14.01,2013-05-14 06:08:00,
2013-05-14 00:09:00,67.8,39.2,30.11,SSW,202,0.0,0.0,35,0.00,,---,0.00,VWS V14.01,2013-05-14 06:09:00,
2013-05-14 00:10:00,65.2,37.9,30.10,SSW,202,0.0,0.0,36,0.00,,---,0.00,VWS V14.01,2013-05-14 06:10:00,
2013-05-14 00:11:00,67.7,38.3,30.11,SSW,202,0.0,0.0,34,0.00,,---,0.00,VWS V14.01,2013-05-14 06:11:00,
2013-05-14 00:12:00,67.7,38.1,30.11,SSW,202,0.0,0.0,34,0.00,,---,0.00,VWS V14.01,2013-05-14 06:12:00,
2013-05-14 00:13:00,67.7,38.0,30.11,SSW,202,0.0,0.0,34,0.00,,---,0.00,VWS V14.01,2013-05-14 06:13:00,
2013-05-14 00:14:00,67.7,38.3,30.11,SSW,202,0.0,0.0,34,0.00,,---,0.00,VWS V14.01,2013-05-14 06:14:00,
2013-05-14 00:15:00,65.1,37.8,30.10,SSW,202,0.0,0.0,36,0.00,,---,0.00,VWS V14.01,2013-05-14 06:15:00,
2013-05-14 00:16:00,67.6,38.0,30.11,SSW,202,0.0,0.0,34,0.00,,---,0.00,VWS V14.01,2013-05-14 06:16:00,
2013-05-14 00:17:00,67.6,38.0,30.11,SSW,202,0.0,0.0,34,0.00,,---,0.00,VWS V14.01,2013-05-14 06:17:00,
2013-05-14 00:18:00,67.6,38.0,30.10,SSW,202,0.0,0.0,34,0.00,,---,0.00,VWS V14.01,2013-05-14 06:18:00,
2013-05-14 00:19:00,67.5,37.9,30.11,SSW,202,0.0,0.0,34,0.00,,---,0.00,VWS V14.01,2013-05-14 06:19:00,
2013-05-14 00:20:00,65.0,37.6,30.10,SSW,202,0.0,0.0,36,0.00,,---,0.00,VWS V14.01,2013-05-14 06:20:00,
2013-05-14 00:21:00,67.4,37.9,30.11,SSW,202,0.0,0.0,34,0.00,,---,0.00,VWS V14.01,2013-05-14 06:21:00,
2013-05-14 00:22:00,67.4,37.9,30.11,SSW,202,0.0,0.0,34,0.00,,---,0.00,VWS V14.01,2013-05-14 06:22:00,
2013-05-14 00:23:00,67.3,37.9,30.11,SSW,202,0.0,0.0,34,0.00,,---,0.00,VWS V14.01,2013-05-14 06:23:00,
2013-05-14 00:24:00,67.3,38.1,30.11,SSW,202,0.0,0.0,34,0.00,,---,0.00,VWS V14.01,2013-05-14 06:24:00,
2013-05-14 00:25:00,64.9,37.8,30.10,SSW,202,0.0,0.0,37,0.00,,---,0.00,VWS V14.01,2013-05-14 06:25:00,
2013-05-14 00:26:00,67.2,38.3,30.10,SSW,202,0.0,0.0,34,0.00,,---,0.00,VWS V14.01,2013-05-14 06:26:00,
2013-05-14 00:27:00,67.1,38.3,30.10,SSW,202,0.0,0.0,35,0.00,,---,0.00,VWS V14.01,2013-05-14 06:27:00,
2013-05-14 00:28:00,67.1,38.4,30.10,SSW,202,0.0,0.0,35,0.00,,---,0.00,VWS V14.01,2013-05-14 06:28:00,
2013-05-14 00:29:00,67.0,38.2,30.10,SSW,202,0.0,0.0,35,0.00,,---,0.00,VWS V14.01,2013-05-14 06:29:00,
2013-05-14 00:30:00,64.8,37.9,30.09,SSW,202,0.0,0.0,37,0.00,,---,0.00,VWS V14.01,2013-05-14 06:30:00,
2013-05-14 00:31:00,67.0,38.6,30.10,SSW,202,0.0,0.0,35,0.00,,---,0.00,VWS V14.01,2013-05-14 06:31:00,
2013-05-14 00:32:00,66.9,38.4,30.10,SSW,202,0.0,0.0,35,0.00,,---,0.00,VWS V14.01,2013-05-14 06:32:00,
2013-05-14 00:33:00,66.8,38.4,30.10,SSW,202,0.0,0.0,35,0.00,,---,0.00,VWS V14.01,2013-05-14 06:33:00,
2013-05-14 00:34:00,66.8,38.4,30.10,SSW,202,0.0,0.0,35,0.00,,---,0.00,VWS V14.01,2013-05-14 06:34:00,
2013-05-14 00:35:00,64.6,37.8,30.09,SSW,202,0.0,0.0,37,0.00,,---,0.00,VWS V14.01,2013-05-14 06:35:00,
2013-05-14 00:36:00,66.7,38.3,30.10,SSW,202,0.0,0.0,35,0.00,,---,0.00,VWS V14.01,2013-05-14 06:36:00,
2013-05-14 00:37:00,66.6,38.0,30.10,SSW,202,0.0,0.0,35,0.00,,---,0.00,VWS V14.01,2013-05-14 06:37:00,
2013-05-14 00:38:00,66.5,38.1,30.10,SSW,202,0.0,0.0,35,0.00,,---,0.00,VWS V14.01,2013-05-14 06:38:00,
2013-05-14 00:40:00,64.4,38.3,30.10,SSW,202,0.0,0.0,38,0.00,,---,0.00,VWS V14.01,2013-05-14 06:40:00,
2013-05-14 00:45:00,64.2,38.0,30.10,SSW,202,0.0,0.0,38,0.00,,---,0.00,VWS V14.01,2013-05-14 06:45:00,
2013-05-14 00:50:00,64.1,37.9,30.09,SSW,202,0.0,0.0,38,0.00,,---,0.00,VWS V14.01,2013-05-14 06:50:00,
2013-05-14 00:55:00,63.7,38.0,30.09,SSW,202,0.0,0.0,39,0.00,,---,0.00,VWS V14.01,2013-05-14 06:55:00,
2013-05-14 01:00:00,63.5,38.2,30.09,SSW,202,0.0,0.0,39,0.00,,---,0.00,VWS V14.01,2013-05-14 07:00:00,
2013-05-14 01:05:00,63.3,38.4,30.09,SSW,202,0.0,0.0,40,0.00,,---,0.00,VWS V14.01,2013-05-14 07:05:00,
2013-05-14 01:10:00,63.1,38.2,30.09,SSW,202,0.0,0.0,40,0.00,,---,0.00,VWS V14.01,2013-05-14 07:10:00,
2013-05-14 01:15:00,62.9,38.0,30.09,SSW,202,0.0,0.0,40,0.00,,---,0.00,VWS V14.01,2013-05-14 07:15:00,
2013-05-14 01:20:00,62.9,38.2,30.09,SSW,202,0.0,0.0,40,0.00,,---,0.00,VWS V14.01,2013-05-14 07:20:00,
2013-05-14 01:25:00,62.8,38.1,30.08,SSW,202,0.0,0.0,40,0.00,,---,0.00,VWS V14.01,2013-05-14 07:25:00,
2013-05-14 01:30:00,62.7,38.4,30.08,SSW,202,0.0,0.0,41,0.00,,---,0.00,VWS V14.01,2013-05-14 07:30:00,
2013-05-14 01:35:00,62.6,38.3,30.09,SSW,202,0.0,0.0,41,0.00,,---,0.00,VWS V14.01,2013-05-14 07:35:00,
2013-05-14 01:40:00,62.5,37.8,30.08,SSW,202,0.0,0.0,40,0.00,,---,0.00,VWS V14.01,2013-05-14 07:40:00,
2013-05-14 01:45:00,62.5,37.8,30.08,SSW,202,0.0,0.0,40,0.00,,---,0.00,VWS V14.01,2013-05-14 07:45:00,
2013-05-14 01:51:00,62.4,37.7,30.08,SSW,202,0.0,0.0,40,0.00,,---,0.00,VWS V14.01,2013-05-14 07:51:00,
2013-05-14 01:56:00,62.3,37.7,30.08,SSW,202,0.0,0.0,40,0.00,,---,0.00,VWS V14.01,2013-05-14 07:56:00,
2013-05-14 02:01:00,62.2,37.9,30.08,SSW,202,0.0,0.0,40,0.00,,---,0.00,VWS V14.01,2013-05-14 08:01:00,
2013-05-14 02:06:00,62.0,37.7,30.07,SSW,202,0.0,0.0,40,0.00,,---,0.00,VWS V14.01,2013-05-14 08:06:00,
2013-05-14 02:11:00,61.8,37.6,30.07,SSW,202,0.0,0.0,40,0.00,,---,0.00,VWS V14.01,2013-05-14 08:11:00,
2013-05-14 02:13:00,66.3,39.4,30.01,NW,316,0.0,13.2,37,0.00,,---,13.52,VWS V14.01,2013-05-14 08:13:00,
2013-05-14 02:16:00,61.8,37.5,30.07,SSW,202,0.0,0.0,40,0.00,,---,0.00,VWS V14.01,2013-05-14 08:16:00,
2013-05-14 02:21:00,61.6,37.3,30.07,SSW,202,0.0,0.0,40,0.00,,---,0.00,VWS V14.01,2013-05-14 08:21:00,
2013-05-14 02:26:00,61.5,37.3,30.07,SSW,202,0.0,0.0,40,0.00,,---,0.00,VWS V14.01,2013-05-14 08:26:00,
2013-05-14 02:31:00,61.4,37.0,30.07,SSW,202,0.0,0.0,40,0.00,,---,0.00,VWS V14.01,2013-05-14 08:31:00,
2013-05-14 02:36:00,61.4,37.2,30.07,SSW,202,0.0,0.0,40,0.00,,---,0.00,VWS V14.01,2013-05-14 08:36:00,
2013-05-14 02:41:00,61.4,36.8,30.07,SSW,202,0.0,0.0,40,0.00,,---,0.00,VWS V14.01,2013-05-14 08:41:00,
2013-05-14 02:46:00,61.3,36.9,30.07,SSW,202,0.0,0.0,40,0.00,,---,0.00,VWS V14.01,2013-05-14 08:46:00,
2013-05-14 02:51:00,61.3,37.0,30.07,SSW,202,0.0,0.0,40,0.00,,---,0.00,VWS V14.01,2013-05-14 08:51:00,
2013-05-14 02:56:00,61.3,37.0,30.07,SSW,202,0.0,0.0,40,0.00,,---,0.00,VWS V14.01,2013-05-14 08:56:00,
2013-05-14 03:01:00,61.1,36.8,30.07,SSW,202,0.0,0.0,40,0.00,,---,0.00,VWS V14.01,2013-05-14 09:01:00,
2013-05-14 03:06:00,61.0,36.8,30.07,SSW,202,0.0,0.0,40,0.00,,---,0.00,VWS V14.01,2013-05-14 09:06:00,
2013-05-14 03:11:00,61.0,36.5,30.07,SSW,202,0.0,0.0,40,0.00,,---,0.00,VWS V14.01,2013-05-14 09:11:00,
2013-05-14 03:16:00,61.0,36.8,30.07,SSW,202,0.0,0.0,40,0.00,,---,0.00,VWS V14.01,2013-05-14 09:16:00,
2013-05-14 03:22:00,60.9,36.6,30.07,SSW,202,0.0,0.0,40,0.00,,---,0.00,VWS V14.01,2013-05-14 09:22:00,
2013-05-14 03:27:00,60.7,36.7,30.07,SSW,202,0.0,0.0,41,0.00,,---,0.00,VWS V14.01,2013-05-14 09:27:00,
2013-05-14 03:32:00,60.5,36.8,30.07,SSW,202,0.0,0.0,41,0.00,,---,0.00,VWS V14.01,2013-05-14 09:32:00,
2013-05-14 03:37:00,60.5,37.1,30.07,SSW,202,0.0,0.0,42,0.00,,---,0.00,VWS V14.01,2013-05-14 09:37:00,
2013-05-14 03:42:00,60.7,37.2,30.07,WSW,253,0.0,0.0,42,0.00,,---,0.00,VWS V14.01,2013-05-14 09:42:00,
2013-05-14 03:47:00,60.9,37.2,30.07,SW,221,0.0,0.0,41,0.00,,---,0.00,VWS V14.01,2013-05-14 09:47:00,
2013-05-14 03:52:00,61.1,37.2,30.07,SW,221,0.0,0.0,41,0.00,,---,0.00,VWS V14.01,2013-05-14 09:52:00,
2013-05-14 03:57:00,61.1,37.2,30.07,SW,221,0.0,0.0,41,0.00,,---,0.00,VWS V14.01,2013-05-14 09:57:00,
2013-05-14 04:02:00,61.1,37.2,30.07,SW,221,0.0,0.0,41,0.00,,---,0.00,VWS V14.01,2013-05-14 10:02:00,
2013-05-14 04:07:00,60.9,36.7,30.07,WSW,252,0.0,0.0,40,0.00,,---,0.00,VWS V14.01,2013-05-14 10:07:00,
2013-05-14 04:12:00,60.7,36.8,30.07,SSW,211,0.0,0.0,41,0.00,,---,0.00,VWS V14.01,2013-05-14 10:12:00,
2013-05-14 04:17:00,60.6,37.0,30.07,West,263,0.0,0.0,41,0.00,,---,0.00,VWS V14.01,2013-05-14 10:17:00,
2013-05-14 04:22:00,60.5,37.0,30.07,WSW,252,0.0,0.0,42,0.00,,---,0.00,VWS V14.01,2013-05-14 10:22:00,
2013-05-14 04:27:00,60.4,37.0,30.07,SSW,212,0.0,0.0,42,0.00,,---,0.00,VWS V14.01,2013-05-14 10:27:00,
2013-05-14 04:32:00,60.3,36.8,30.07,WSW,250,0.0,0.0,42,0.00,,---,0.00,VWS V14.01,2013-05-14 10:32:00,
2013-05-14 04:37:00,60.3,37.1,30.07,WSW,250,0.0,0.0,42,0.00,,---,0.00,VWS V14.01,2013-05-14 10:37:00,
2013-05-14 04:42:00,60.2,37.0,30.07,WSW,250,0.0,0.0,42,0.00,,---,0.00,VWS V14.01,2013-05-14 10:42:00,
2013-05-14 04:47:00,60.0,36.6,30.07,WSW,250,0.0,0.0,42,0.00,,---,0.00,VWS V14.01,2013-05-14 10:47:00,
2013-05-14 04:52:00,59.9,36.7,30.07,WSW,250,0.0,0.0,42,0.00,,---,0.00,VWS V14.01,2013-05-14 10:52:00,
2013-05-14 04:57:00,59.6,36.6,30.07,WSW,250,0.0,0.0,42,0.00,,---,0.00,VWS V14.01,2013-05-14 10:57:00,
2013-05-14 05:02:00,59.5,36.5,30.07,WSW,250,0.0,0.0,42,0.00,,---,0.00,VWS V14.01,2013-05-14 11:02:00,
2013-05-14 05:07:00,59.4,36.4,30.07,WSW,250,0.0,0.0,42,0.00,,---,0.00,VWS V14.01,2013-05-14 11:07:00,
2013-05-14 05:12:00,59.5,36.7,30.07,WSW,250,0.0,0.0,42,0.00,,---,0.00,VWS V14.01,2013-05-14 11:12:00,
2013-05-14 05:17:00,59.5,36.6,30.07,WSW,250,0.0,0.0,42,0.00,,---,0.00,VWS V14.01,2013-05-14 11:17:00,
2013-05-14 05:22:00,59.4,36.5,30.07,WSW,250,0.0,0.0,42,0.00,,---,0.00,VWS V14.01,2013-05-14 11:22:00,
2013-05-14 05:27:00,59.4,36.4,30.07,WSW,250,0.0,0.0,42,0.00,,---,0.00,VWS V14.01,2013-05-14 11:27:00,
2013-05-14 05:32:00,59.3,36.3,30.07,WSW,250,0.0,0.0,42,0.00,,---,0.00,VWS V14.01,2013-05-14 11:32:00,
2013-05-14 05:37:00,59.2,36.3,30.07,WSW,250,0.0,0.0,42,0.00,,---,0.00,VWS V14.01,2013-05-14 11:37:00,
2013-05-14 05:43:00,59.1,36.2,30.07,WSW,250,0.0,0.0,42,0.00,,---,0.00,VWS V14.01,2013-05-14 11:43:00,
2013-05-14 05:48:00,59.0,36.0,30.07,WSW,250,0.0,0.0,42,0.00,,---,0.00,VWS V14.01,2013-05-14 11:48:00,
2013-05-14 05:53:00,59.0,36.5,30.07,WSW,250,0.0,0.0,43,0.00,,---,0.00,VWS V14.01,2013-05-14 11:53:00,
2013-05-14 05:58:00,59.1,36.5,30.08,WSW,250,0.0,0.0,43,0.00,,---,0.00,VWS V14.01,2013-05-14 11:58:00,
2013-05-14 06:03:00,59.1,36.4,30.07,WSW,250,0.0,0.0,43,0.00,,---,0.00,VWS V14.01,2013-05-14 12:03:00,
2013-05-14 06:08:00,59.2,36.3,30.08,WSW,250,0.0,0.0,42,0.00,,---,0.00,VWS V14.01,2013-05-14 12:08:00,
2013-05-14 06:13:00,59.2,36.3,30.08,WSW,250,0.0,0.0,42,0.00,,---,0.00,VWS V14.01,2013-05-14 12:13:00,
2013-05-14 06:18:00,59.4,36.4,30.08,WSW,250,0.0,0.0,42,0.00,,---,0.00,VWS V14.01,2013-05-14 12:18:00,
2013-05-14 06:23:00,59.6,36.6,30.08,WSW,250,0.0,0.0,42,0.00,,---,0.00,VWS V14.01,2013-05-14 12:23:00,
2013-05-14 06:28:00,59.7,36.5,30.08,WSW,250,0.0,0.0,42,0.00,,---,0.00,VWS V14.01,2013-05-14 12:28:00,
2013-05-14 06:33:00,60.0,36.9,30.08,WSW,250,0.0,0.0,42,0.00,,---,0.00,VWS V14.01,2013-05-14 12:33:00,
2013-05-14 06:38:00,60.4,37.0,30.08,WSW,245,0.0,0.0,42,0.00,,---,0.00,VWS V14.01,2013-05-14 12:38:00,
2013-05-14 06:43:00,60.8,37.2,30.08,WSW,245,0.0,0.0,41,0.00,,---,0.00,VWS V14.01,2013-05-14 12:43:00,
2013-05-14 06:48:00,61.0,37.3,30.08,WSW,245,0.0,0.0,41,0.00,,---,0.00,VWS V14.01,2013-05-14 12:48:00,
2013-05-14 06:53:00,61.2,37.4,30.08,WSW,245,0.0,0.0,41,0.00,,---,0.00,VWS V14.01,2013-05-14 12:53:00,
2013-05-14 06:58:00,61.5,37.6,30.08,WSW,245,0.0,0.0,41,0.00,,---,0.00,VWS V14.01,2013-05-14 12:58:00,
2013-05-14 07:03:00,61.7,37.7,30.09,WSW,245,0.0,0.0,41,0.00,,---,0.00,VWS V14.01,2013-05-14 13:03:00,
2013-05-14 07:08:00,62.0,37.8,30.09,SW,215,0.0,0.0,41,0.00,,---,0.00,VWS V14.01,2013-05-14 13:08:00,
2013-05-14 07:13:00,62.2,38.0,30.09,SW,215,0.0,0.0,41,0.00,,---,0.00,VWS V14.01,2013-05-14 13:13:00,
2013-05-14 07:18:00,62.6,38.2,30.09,SW,215,0.0,0.0,40,0.00,,---,0.00,VWS V14.01,2013-05-14 13:18:00,
2013-05-14 07:23:00,63.1,38.4,30.09,SW,215,0.0,2.9,40,0.00,,---,0.00,VWS V14.01,2013-05-14 13:23:00,
2013-05-14 07:28:00,63.4,38.5,30.09,SW,215,0.0,0.0,40,0.00,,---,0.00,VWS V14.01,2013-05-14 13:28:00,
2013-05-14 07:33:00,64.0,38.8,30.09,SW,215,0.0,0.0,39,0.00,,---,0.00,VWS V14.01,2013-05-14 13:33:00,
2013-05-14 07:38:00,64.5,38.9,30.09,SW,215,0.0,0.0,39,0.00,,---,0.00,VWS V14.01,2013-05-14 13:38:00,
2013-05-14 07:44:00,65.0,39.3,30.09,SW,215,0.0,0.0,39,0.00,,---,0.00,VWS V14.01,2013-05-14 13:44:00,
2013-05-14 07:49:00,65.6,39.3,30.09,SW,215,0.0,0.0,38,0.00,,---,0.00,VWS V14.01,2013-05-14 13:49:00,
2013-05-14 07:54:00,66.1,39.5,30.09,SW,215,0.0,0.0,38,0.00,,---,0.00,VWS V14.01,2013-05-14 13:54:00,
2013-05-14 07:59:00,66.5,39.1,30.09,SW,215,0.0,0.0,36,0.00,,---,0.00,VWS V14.01,2013-05-14 13:59:00,
2013-05-14 08:04:00,66.9,39.8,30.08,SW,215,0.0,0.0,37,0.00,,---,0.00,VWS V14.01,2013-05-14 14:04:00,
2013-05-14 08:09:00,67.3,40.3,30.08,SW,215,0.0,0.0,37,0.00,,---,0.00,VWS V14.01,2013-05-14 14:09:00,
2013-05-14 08:14:00,67.8,39.4,30.08,SW,215,0.0,0.0,35,0.00,,---,0.00,VWS V14.01,2013-05-14 14:14:00,
2013-05-14 08:19:00,68.2,39.6,30.08,SW,215,0.0,0.0,35,0.00,,---,0.00,VWS V14.01,2013-05-14 14:19:00,
2013-05-14 08:24:00,68.7,39.8,30.08,SW,215,0.0,2.9,35,0.00,,---,0.00,VWS V14.01,2013-05-14 14:24:00,
2013-05-14 08:29:00,69.1,39.6,30.08,WSW,248,0.0,0.0,34,0.00,,---,0.00,VWS V14.01,2013-05-14 14:29:00,
2013-05-14 08:34:00,69.7,40.3,30.08,WSW,248,0.0,0.0,34,0.00,,---,0.00,VWS V14.01,2013-05-14 14:34:00,
2013-05-14 08:39:00,70.1,39.8,30.08,SW,225,0.0,0.0,33,0.00,,---,0.00,VWS V14.01,2013-05-14 14:39:00,
2013-05-14 08:44:00,70.7,40.2,30.08,SW,225,0.0,0.0,33,0.00,,---,0.00,VWS V14.01,2013-05-14 14:44:00,
2013-05-14 08:49:00,71.2,39.8,30.08,WNW,301,0.0,0.0,32,0.00,,---,0.00,VWS V14.01,2013-05-14 14:49:00,
2013-05-14 08:54:00,71.6,40.3,30.08,WNW,301,0.0,0.0,32,0.00,,---,0.00,VWS V14.01,2013-05-14 14:54:00,
2013-05-14 08:59:00,72.1,40.8,30.08,WNW,301,0.0,0.0,32,0.00,,---,0.00,VWS V14.01,2013-05-14 14:59:00,
2013-05-14 09:04:00,72.6,40.3,30.08,WSW,255,0.0,0.0,31,0.00,,---,0.00,VWS V14.01,2013-05-14 15:04:00,
2013-05-14 09:09:00,73.1,40.4,30.08,SSW,207,6.0,6.0,31,0.00,,---,0.00,VWS V14.01,2013-05-14 15:09:00,
2013-05-14 09:14:00,73.6,40.5,30.08,West,259,3.4,5.3,30,0.00,,---,0.00,VWS V14.01,2013-05-14 15:14:00,
2013-05-14 09:19:00,74.0,40.0,30.08,West,259,0.0,0.0,29,0.00,,---,0.00,VWS V14.01,2013-05-14 15:19:00,
2013-05-14 09:24:00,74.5,40.1,30.08,West,259,0.0,0.0,29,0.00,,---,0.00,VWS V14.01,2013-05-14 15:24:00,
2013-05-14 09:29:00,75.0,40.8,30.07,West,259,0.0,0.0,29,0.00,,---,0.00,VWS V14.01,2013-05-14 15:29:00,
2013-05-14 09:35:00,75.3,39.6,30.07,SSW,207,0.0,0.0,28,0.00,,---,0.00,VWS V14.01,2013-05-14 15:35:00,
2013-05-14 09:40:00,75.7,40.0,30.07,West,264,0.0,0.0,28,0.00,,---,0.00,VWS V14.01,2013-05-14 15:40:00,
2013-05-14 09:45:00,76.3,38.9,30.07,West,264,0.0,0.0,26,0.00,,---,0.00,VWS V14.01,2013-05-14 15:45:00,
2013-05-14 09:50:00,76.6,37.2,30.07,West,264,0.0,0.0,24,0.00,,---,0.00,VWS V14.01,2013-05-14 15:50:00,
2013-05-14 09:55:00,76.9,36.1,30.07,West,264,0.0,0.0,23,0.00,,---,0.00,VWS V14.01,2013-05-14 15:55:00,
2013-05-14 10:00:00,77.4,36.5,30.07,West,264,0.0,0.0,23,0.00,,---,0.00,VWS V14.01,2013-05-14 16:00:00,
2013-05-14 10:05:00,77.9,37.2,30.07,SSW,204,4.2,4.3,23,0.00,,---,0.00,VWS V14.01,2013-05-14 16:05:00,
2013-05-14 10:10:00,78.4,36.9,30.07,SSW,204,0.0,0.0,22,0.00,,---,0.00,VWS V14.01,2013-05-14 16:10:00,
2013-05-14 10:15:00,78.8,35.6,30.07,SSW,204,0.0,0.0,21,0.00,,---,0.00,VWS V14.01,2013-05-14 16:15:00,
2013-05-14 10:20:00,79.0,36.1,30.07,SW,232,0.0,0.0,21,0.00,,---,0.00,VWS V14.01,2013-05-14 16:20:00,
2013-05-14 10:25:00,79.2,34.5,30.07,SW,232,0.0,0.0,20,0.00,,---,0.00,VWS V14.01,2013-05-14 16:25:00,
2013-05-14 10:30:00,79.6,33.2,30.07,SW,232,0.0,0.0,19,0.00,,---,0.00,VWS V14.01,2013-05-14 16:30:00,
2013-05-14 10:35:00,79.9,36.4,30.07,WSW,242,0.0,0.0,21,0.00,,---,0.00,VWS V14.01,2013-05-14 16:35:00,
2013-05-14 10:40:00,80.1,32.7,30.07,SSW,202,0.0,0.0,18,0.00,,---,0.00,VWS V14.01,2013-05-14 16:40:00,
2013-05-14 10:45:00,80.4,33.7,30.06,SSW,202,0.0,0.0,18,0.00,,---,0.00,VWS V14.01,2013-05-14 16:45:00,
2013-05-14 10:50:00,80.9,33.2,30.07,SW,215,5.6,6.0,18,0.00,,---,0.00,VWS V14.01,2013-05-14 16:50:00,
2013-05-14 10:55:00,81.2,32.1,30.06,SW,232,0.0,0.0,17,0.00,,---,0.00,VWS V14.01,2013-05-14 16:55:00,
2013-05-14 11:00:00,81.4,30.2,30.06,SW,232,0.0,0.0,16,0.00,,---,0.00,VWS V14.01,2013-05-14 17:00:00,
2013-05-14 11:05:00,81.6,27.3,30.06,North,11,0.0,6.2,14,0.00,,---,0.00,VWS V14.01,2013-05-14 17:05:00,
2013-05-14 11:10:00,81.4,25.5,30.06,NNE,13,0.0,0.0,13,0.00,,---,0.00,VWS V14.01,2013-05-14 17:10:00,
2013-05-14 11:11:00,65.6,20.5,30.02,NW,316,0.0,13.4,18,0.00,,---,99.99,VWS V14.01,2013-05-14 17:11:00,
2013-05-14 11:12:00,65.8,40.0,0.00,NW,316,0.0,13.2,39,0.00,,---,99.99,VWS V14.01,2013-05-14 17:12:00,
2013-05-14 11:13:00,65.8,39.6,30.01,NW,316,0.0,13.2,38,0.00,,---,99.99,VWS V14.01,2013-05-14 17:13:00,
2013-05-14 11:14:00,70.8,43.8,0.00,WSW,250,0.0,13.2,38,0.00,,---,99.99,VWS V14.01,2013-05-14 17:14:00,
2013-05-14 11:15:00,81.8,27.8,30.05,SSE,155,0.0,5.3,14,0.00,,---,0.00,VWS V14.01,2013-05-14 17:15:00,
2013-05-14 11:17:00,66.2,39.3,30.01,NW,316,0.0,0.0,37,0.00,,---,99.99,VWS V14.01,2013-05-14 17:17:00,
2013-05-14 11:18:00,66.3,39.3,30.01,NW,316,0.0,13.2,37,0.00,,---,99.99,VWS V14.01,2013-05-14 17:18:00,
2013-05-14 11:19:00,11.8,-9.6,0.00,North,0,0.0,13.2,37,0.00,,---,0.00,VWS V14.01,2013-05-14 17:19:00,
2013-05-14 11:20:00,81.8,26.4,30.05,ESE,108,0.0,0.0,13,0.00,,---,0.00,VWS V14.01,2013-05-14 17:20:00,
2013-05-14 11:21:00,66.6,39.0,30.01,NW,316,0.0,11.7,36,0.00,,---,0.00,VWS V14.01,2013-05-14 17:21:00,
2013-05-14 11:22:00,66.7,39.1,30.01,NW,316,0.0,13.2,36,0.00,,---,99.99,VWS V14.01,2013-05-14 17:22:00,
2013-05-14 11:23:00,66.8,38.7,30.02,NW,316,0.0,13.2,36,0.00,,---,99.99,VWS V14.01,2013-05-14 17:23:00,
2013-05-14 11:24:00,66.9,38.5,30.02,NW,316,0.0,13.2,35,0.00,,---,0.00,VWS V14.01,2013-05-14 17:24:00,
2013-05-14 11:25:00,82.0,27.5,30.05,ESE,108,0.0,0.0,14,0.00,,---,0.00,VWS V14.01,2013-05-14 17:25:00,
2013-05-14 11:26:00,67.1,37.9,30.02,NW,316,0.0,13.2,34,0.00,,---,99.99,VWS V14.01,2013-05-14 17:26:00,
2013-05-14 11:27:00,70.7,41.3,0.00,WSW,256,0.0,0.0,34,0.00,,---,99.99,VWS V14.01,2013-05-14 17:27:00,
2013-05-14 11:28:00,67.3,38.7,30.02,NW,316,0.0,0.0,35,0.00,,---,0.00,VWS V14.01,2013-05-14 17:28:00,
2013-05-14 11:30:00,82.1,26.4,30.05,SE,145,7.0,7.0,13,0.00,,---,0.00,VWS V14.01,2013-05-14 17:30:00,
2013-05-14 11:35:00,82.2,26.9,30.05,SE,142,0.0,0.0,13,0.00,,---,0.00,VWS V14.01,2013-05-14 17:35:00,
2013-05-14 11:40:00,82.4,26.3,30.05,South,174,5.2,5.8,13,0.00,,---,0.00,VWS V14.01,2013-05-14 17:40:00,
2013-05-14 11:46:00,82.5,27.7,30.04,ESE,103,0.0,0.0,14,0.00,,---,0.00,VWS V14.01,2013-05-14 17:46:00,
2013-05-14 11:51:00,82.9,26.5,30.04,ESE,112,0.0,0.0,13,0.00,,---,0.00,VWS V14.01,2013-05-14 17:51:00,
2013-05-14 11:56:00,83.3,23.6,30.04,North,11,0.0,0.0,11,0.00,,---,0.00,VWS V14.01,2013-05-14 17:56:00,
2013-05-14 12:01:00,82.9,22.8,30.04,North,4,7.5,7.7,11,0.00,,---,0.00,VWS V14.01,2013-05-14 18:01:00,
2013-05-14 12:02:00,70.7,41.4,0.00,WSW,256,0.0,0.0,34,0.00,,---,0.00,VWS V14.01,2013-05-14 18:02:00,
2013-05-14 12:03:00,67.0,52.9,0.00,NW,316,0.0,13.2,60,0.00,,---,4.31,VWS V14.01,2013-05-14 18:03:00,
2013-05-14 12:04:00,66.9,52.8,29.48,NW,316,0.0,0.0,60,0.00,,---,4.33,VWS V14.01,2013-05-14 18:04:00,
2013-05-14 12:06:00,81.8,24.7,30.04,NE,56,6.0,6.6,12,0.00,,---,0.00,VWS V14.01,2013-05-14 18:06:00,
2013-05-14 12:11:00,80.8,24.1,30.04,NE,46,3.4,6.8,12,0.00,,---,0.00,VWS V14.01,2013-05-14 18:11:00,
2013-05-14 12:16:00,81.0,25.0,30.03,East,101,0.0,0.0,13,0.00,,---,0.00,VWS V14.01,2013-05-14 18:16:00,
2013-05-14 12:21:00,82.0,25.8,30.03,SE,138,3.4,8.1,13,0.00,,---,0.00,VWS V14.01,2013-05-14 18:21:00,
2013-05-14 12:26:00,83.2,23.9,30.03,East,91,0.0,4.7,11,0.00,,---,0.00,VWS V14.01,2013-05-14 18:26:00,
2013-05-14 12:31:00,84.5,26.2,30.03,ESE,115,0.0,0.0,12,0.00,,---,0.00,VWS V14.01,2013-05-14 18:31:00,
2013-05-14 12:36:00,85.2,24.6,30.03,ESE,108,2.4,2.4,11,0.00,,---,0.00,VWS V14.01,2013-05-14 18:36:00,
2013-05-14 12:41:00,85.6,21.4,30.02,East,84,2.7,3.4,9,0.00,,---,0.00,VWS V14.01,2013-05-14 18:41:00,
2013-05-14 12:46:00,85.8,20.5,30.02,SE,131,5.3,5.7,9,0.00,,---,0.00,VWS V14.01,2013-05-14 18:46:00,
2013-05-14 12:51:00,85.9,22.4,30.02,ESE,120,4.4,6.3,10,0.00,,---,0.00,VWS V14.01,2013-05-14 18:51:00,
2013-05-14 12:56:00,85.5,21.8,30.02,SE,124,0.0,0.0,10,0.00,,---,0.00,VWS V14.01,2013-05-14 18:56:00,
2013-05-14 13:01:00,84.5,23.2,30.02,ESE,103,0.0,5.5,10,0.00,,---,0.00,VWS V14.01,2013-05-14 19:01:00,
2013-05-14 13:06:00,83.2,24.5,30.02,SSW,195,0.0,0.0,12,0.00,,---,0.00,VWS V14.01,2013-05-14 19:06:00,
2013-05-14 13:11:00,83.8,25.8,30.02,ESE,107,0.0,2.5,12,0.00,,---,0.00,VWS V14.01,2013-05-14 19:11:00,
2013-05-14 13:16:00,84.8,25.8,30.02,SSW,204,3.2,3.2,12,0.00,,---,0.00,VWS V14.01,2013-05-14 19:16:00,
2013-05-14 13:21:00,85.9,29.8,30.02,South,173,4.2,4.2,13,0.00,,---,0.00,VWS V14.01,2013-05-14 19:21:00,
2013-05-14 13:26:00,86.8,23.8,30.01,SW,232,0.0,0.0,10,0.00,,---,0.00,VWS V14.01,2013-05-14 19:26:00,
2013-05-14 13:31:00,86.4,19.6,30.01,SW,219,0.0,2.6,8,0.00,,---,0.00,VWS V14.01,2013-05-14 19:31:00,
2013-05-14 13:36:00,85.2,19.8,30.01,East,89,6.8,9.5,9,0.00,,---,0.00,VWS V14.01,2013-05-14 19:36:00,
2013-05-14 13:41:00,83.9,22.0,30.01,NE,52,5.8,6.0,10,0.00,,---,0.00,VWS V14.01,2013-05-14 19:41:00,
2013-05-14 13:46:00,82.4,21.6,30.00,NNE,25,5.3,10.3,10,0.00,,---,0.00,VWS V14.01,2013-05-14 19:46:00,
2013-05-14 13:51:00,81.3,21.8,30.01,NNE,21,8.6,9.9,11,0.00,,---,0.00,VWS V14.01,2013-05-14 19:51:00,
2013-05-14 13:56:00,80.7,21.4,30.01,ENE,77,7.8,9.8,11,0.00,,---,0.00,VWS V14.01,2013-05-14 19:56:00,
2013-05-14 14:01:00,80.1,22.1,30.01,NNE,28,0.0,0.0,12,0.00,,---,0.00,VWS V14.01,2013-05-14 20:01:00,
2013-05-14 14:06:00,79.8,22.9,30.01,ESE,104,0.0,0.0,12,0.00,,---,0.00,VWS V14.01,2013-05-14 20:06:00,
2013-05-14 14:12:00,79.8,23.1,30.01,SE,143,7.9,7.9,12,0.00,,---,0.00,VWS V14.01,2013-05-14 20:12:00,
2013-05-14 14:17:00,79.8,23.7,30.01,NE,55,0.0,0.0,12,0.00,,---,0.00,VWS V14.01,2013-05-14 20:17:00,
2013-05-14 14:22:00,79.9,22.4,30.01,North,356,11.5,11.5,12,0.00,,---,0.00,VWS V14.01,2013-05-14 20:22:00,
2013-05-14 14:27:00,79.9,24.3,30.02,NW,323,0.0,0.0,13,0.00,,---,0.00,VWS V14.01,2013-05-14 20:27:00,
2013-05-14 14:32:00,79.7,24.0,30.02,South,173,5.6,5.6,13,0.00,,---,0.00,VWS V14.01,2013-05-14 20:32:00,
2013-05-14 14:37:00,79.4,26.6,30.02,NNW,343,0.0,0.0,14,0.00,,---,0.00,VWS V14.01,2013-05-14 20:37:00,
2013-05-14 14:42:00,79.1,27.0,30.02,WNW,294,5.2,5.2,15,0.00,,---,0.00,VWS V14.01,2013-05-14 20:42:00,
2013-05-14 14:47:00,78.9,27.0,30.02,North,0,0.0,0.0,15,0.00,,---,0.00,VWS V14.01,2013-05-14 20:47:00,
2013-05-14 14:52:00,78.8,30.1,30.02,North,0,0.0,0.0,17,0.00,,---,0.00,VWS V14.01,2013-05-14 20:52:00,
2013-05-14 14:57:00,78.8,29.3,30.03,NNW,336,0.0,0.0,16,0.00,,---,0.00,VWS V14.01,2013-05-14 20:57:00,
2013-05-14 15:02:00,78.7,31.0,30.03,NNW,332,4.6,5.4,18,0.00,,---,0.00,VWS V14.01,2013-05-14 21:02:00,
2013-05-14 15:07:00,78.3,31.9,30.03,SW,221,0.0,0.0,18,0.00,,---,0.00,VWS V14.01,2013-05-14 21:07:00,
2013-05-14 15:12:00,77.6,35.5,30.04,North,359,0.0,10.7,22,0.00,,---,0.00,VWS V14.01,2013-05-14 21:12:00,
2013-05-14 15:17:00,76.7,36.9,30.05,North,359,0.0,0.0,24,0.00,,---,0.00,VWS V14.01,2013-05-14 21:17:00,
2013-05-14 15:22:00,76.4,39.3,30.05,WSW,256,0.0,0.0,26,0.00,,---,0.00,VWS V14.01,2013-05-14 21:22:00,
2013-05-14 15:27:00,75.9,39.8,30.05,WSW,256,0.0,0.0,27,0.00,,---,0.00,VWS V14.01,2013-05-14 21:27:00,
2013-05-14 15:32:00,75.6,38.9,30.04,SW,228,8.8,8.8,27,0.00,,---,0.00,VWS V14.01,2013-05-14 21:32:00,
2013-05-14 15:37:00,75.1,38.2,30.04,SSW,194,7.1,9.1,26,0.00,,---,0.00,VWS V14.01,2013-05-14 21:37:00,
2013-05-14 15:42:00,74.8,38.6,30.03,SE,134,3.4,5.3,27,0.00,,---,0.00,VWS V14.01,2013-05-14 21:42:00,
2013-05-14 15:47:00,74.8,37.8,30.02,WSW,250,0.0,0.0,26,0.00,,---,0.00,VWS V14.01,2013-05-14 21:47:00,
2013-05-14 15:52:00,74.9,36.3,30.02,SSW,198,0.0,0.0,25,0.00,,---,0.00,VWS V14.01,2013-05-14 21:52:00,
2013-05-14 15:57:00,75.2,36.6,30.01,SSW,198,0.0,0.0,25,0.00,,---,0.00,VWS V14.01,2013-05-14 21:57:00,
2013-05-14 16:03:00,75.4,35.8,30.00,SSW,198,0.0,0.0,24,0.00,,---,0.00,VWS V14.01,2013-05-14 22:03:00,
2013-05-14 16:08:00,75.5,34.9,30.00,SSW,198,0.0,0.0,23,0.00,,---,0.00,VWS V14.01,2013-05-14 22:08:00,
2013-05-14 16:13:00,75.7,35.4,30.01,SSW,198,0.0,0.0,23,0.00,,---,0.00,VWS V14.01,2013-05-14 22:13:00,
2013-05-14 16:18:00,75.7,36.4,30.01,WNW,292,0.0,2.9,24,0.00,,---,0.00,VWS V14.01,2013-05-14 22:18:00,
2013-05-14 16:23:00,75.5,36.7,30.01,WNW,292,0.0,0.0,24,0.00,,---,0.00,VWS V14.01,2013-05-14 22:23:00,
2013-05-14 16:28:00,75.2,36.5,30.00,West,260,6.9,7.1,24,0.00,,---,0.00,VWS V14.01,2013-05-14 22:28:00,
2013-05-14 16:33:00,74.9,36.7,30.00,West,274,6.3,9.0,25,0.00,,---,0.00,VWS V14.01,2013-05-14 22:33:00,
2013-05-14 16:38:00,74.6,36.6,30.00,WSW,248,7.5,8.2,25,0.00,,---,0.00,VWS V14.01,2013-05-14 22:38:00,
2013-05-14 16:43:00,74.4,36.3,30.00,SW,236,3.3,3.4,25,0.00,,---,0.00,VWS V14.01,2013-05-14 22:43:00,
2013-05-14 16:48:00,74.6,36.7,30.00,WSW,243,0.0,3.4,25,0.00,,---,0.00,VWS V14.01,2013-05-14 22:48:00,
2013-05-14 16:53:00,74.9,37.2,30.00,WSW,238,0.0,0.0,25,0.00,,---,0.00,VWS V14.01,2013-05-14 22:53:00,
2013-05-14 16:58:00,75.3,37.6,30.00,WSW,249,6.2,7.8,26,0.00,,---,0.00,VWS V14.01,2013-05-14 22:58:00,
2013-05-14 17:03:00,75.4,38.0,30.00,SSW,205,3.4,7.8,26,0.00,,---,0.00,VWS V14.01,2013-05-14 23:03:00,
2013-05-14 17:08:00,75.3,38.4,30.00,SW,219,10.1,10.7,26,0.00,,---,0.00,VWS V14.01,2013-05-14 23:08:00,
2013-05-14 17:13:00,75.2,38.9,30.00,North,359,0.0,15.0,27,0.00,,---,0.00,VWS V14.01,2013-05-14 23:13:00,
2013-05-14 17:18:00,75.2,39.0,30.00,WSW,250,7.1,10.9,27,0.00,,---,0.00,VWS V14.01,2013-05-14 23:18:00,
2013-05-14 17:23:00,75.0,38.9,30.00,West,277,7.3,9.2,27,0.00,,---,0.00,VWS V14.01,2013-05-14 23:23:00,
2013-05-14 17:28:00,74.9,38.7,30.00,WNW,291,8.3,9.6,27,0.00,,---,0.00,VWS V14.01,2013-05-14 23:28:00,
2013-05-14 17:33:00,75.0,39.1,30.00,SW,221,6.6,6.8,27,0.00,,---,0.00,VWS V14.01,2013-05-14 23:33:00,
2013-05-14 17:38:00,75.1,39.0,30.00,West,266,5.5,9.9,27,0.00,,---,0.00,VWS V14.01,2013-05-14 23:38:00,
2013-05-14 17:43:00,74.7,38.9,30.01,WSW,256,5.6,6.5,27,0.00,,---,0.00,VWS V14.01,2013-05-14 23:43:00,
2013-05-14 17:48:00,74.4,38.9,30.02,WSW,238,5.2,6.3,28,0.00,,---,0.00,VWS V14.01,2013-05-14 23:48:00,
2013-05-14 17:53:00,74.0,39.3,30.02,WSW,246,6.4,7.5,28,0.00,,---,0.00,VWS V14.01,2013-05-14 23:53:00,
2013-05-14 17:59:00,73.8,39.7,30.02,WSW,249,0.0,0.0,29,0.00,,---,0.00,VWS V14.01,2013-05-14 23:59:00,
2013-05-14 18:04:00,73.5,39.2,30.01,WNW,301,0.0,3.4,29,0.00,,---,0.00,VWS V14.01,2013-05-15 00:04:00,
2013-05-14 18:09:00,73.3,39.2,30.01,WNW,294,6.2,6.2,29,0.00,,---,0.00,VWS V14.01,2013-05-15 00:09:00,
2013-05-14 18:14:00,73.0,38.9,30.01,WSW,255,3.2,8.9,29,0.00,,---,0.00,VWS V14.01,2013-05-15 00:14:00,
2013-05-14 18:19:00,72.8,38.8,30.01,SW,235,2.7,2.7,29,0.00,,---,0.00,VWS V14.01,2013-05-15 00:19:00,
2013-05-14 18:24:00,72.6,38.5,30.00,NW,316,3.3,3.3,29,0.00,,---,0.00,VWS V14.01,2013-05-15 00:24:00,
2013-05-14 18:29:00,72.5,39.2,30.01,SW,229,0.0,3.5,30,0.00,,---,0.00,VWS V14.01,2013-05-15 00:29:00,
2013-05-14 18:34:00,72.4,39.0,30.01,WNW,292,0.0,0.0,30,0.00,,---,0.00,VWS V14.01,2013-05-15 00:34:00,
2013-05-14 18:39:00,72.2,38.7,30.01,West,271,0.0,0.0,30,0.00,,---,0.00,VWS V14.01,2013-05-15 00:39:00,
2013-05-14 18:44:00,72.0,39.0,30.02,WNW,292,2.3,5.0,30,0.00,,---,0.00,VWS V14.01,2013-05-15 00:44:00,
2013-05-14 18:49:00,71.9,38.7,30.02,SW,228,0.0,3.4,30,0.00,,---,0.00,VWS V14.01,2013-05-15 00:49:00,
2013-05-14 18:54:00,71.8,38.6,30.02,West,277,6.5,7.0,30,0.00,,---,0.00,VWS V14.01,2013-05-15 00:54:00,
2013-05-14 18:59:00,71.6,38.7,30.02,West,271,0.0,0.0,30,0.00,,---,0.00,VWS V14.01,2013-05-15 00:59:00,
2013-05-14 19:04:00,71.5,38.8,30.01,West,277,3.2,3.5,30,0.00,,---,0.00,VWS V14.01,2013-05-15 01:04:00,
2013-05-14 19:11:00,71.3,38.6,30.01,WSW,249,0.0,0.0,30,0.00,,---,0.00,VWS V14.01,2013-05-15 01:11:00,
2013-05-14 19:16:00,71.1,38.5,30.01,West,274,4.8,4.8,30,0.00,,---,0.00,VWS V14.01,2013-05-15 01:16:00,
2013-05-14 19:21:00,71.1,39.0,30.01,West,274,0.0,0.0,31,0.00,,---,0.00,VWS V14.01,2013-05-15 01:21:00,
2013-05-14 19:26:00,70.9,38.5,30.00,WNW,292,0.0,0.0,31,0.00,,---,0.00,VWS V14.01,2013-05-15 01:26:00,
2013-05-14 19:31:00,70.9,39.2,30.01,WNW,292,0.0,0.0,32,0.00,,---,0.00,VWS V14.01,2013-05-15 01:31:00,
2013-05-14 19:36:00,70.8,39.4,30.01,WNW,292,0.0,0.0,32,0.00,,---,0.00,VWS V14.01,2013-05-15 01:36:00,
2013-05-14 19:41:00,70.7,39.5,30.01,WNW,292,0.0,0.0,32,0.00,,---,0.00,VWS V14.01,2013-05-15 01:41:00,
2013-05-14 19:46:00,70.7,39.3,30.01,WNW,292,0.0,0.0,32,0.00,,---,0.00,VWS V14.01,2013-05-15 01:46:00,
2013-05-14 19:51:00,70.5,39.3,30.01,WNW,292,0.0,0.0,32,0.00,,---,0.00,VWS V14.01,2013-05-15 01:51:00,
2013-05-14 19:56:00,70.4,39.2,30.01,WNW,292,0.0,0.0,32,0.00,,---,0.00,VWS V14.01,2013-05-15 01:56:00,
2013-05-14 20:01:00,70.3,38.3,30.01,WNW,292,0.0,0.0,31,0.00,,---,0.00,VWS V14.01,2013-05-15 02:01:00,
2013-05-14 20:07:00,70.2,38.5,30.01,WNW,292,0.0,0.0,31,0.00,,---,0.00,VWS V14.01,2013-05-15 02:07:00,
2013-05-14 20:12:00,69.9,38.6,30.02,WNW,292,0.0,0.0,32,0.00,,---,0.00,VWS V14.01,2013-05-15 02:12:00,
2013-05-14 20:17:00,69.6,38.8,30.02,WNW,292,0.0,0.0,32,0.00,,---,0.00,VWS V14.01,2013-05-15 02:17:00,
2013-05-14 20:22:00,69.3,38.8,30.02,WNW,292,0.0,0.0,33,0.00,,---,0.00,VWS V14.01,2013-05-15 02:22:00,
2013-05-14 20:27:00,69.0,39.0,30.02,NW,316,0.0,0.0,33,0.00,,---,0.00,VWS V14.01,2013-05-15 02:27:00,
2013-05-14 20:32:00,68.7,38.3,30.02,NW,316,0.0,0.0,33,0.00,,---,0.00,VWS V14.01,2013-05-15 02:32:00,
2013-05-14 20:37:00,68.5,38.2,30.02,NW,316,0.0,0.0,33,0.00,,---,0.00,VWS V14.01,2013-05-15 02:37:00,
2013-05-14 20:40:00,68.4,38.4,30.02,NW,316,0.0,0.0,33,0.00,,---,0.00,VWS V14.01,2013-05-15 02:40:00,
2013-05-14 20:41:00,68.4,38.4,30.02,NW,316,0.0,0.0,33,0.00,,---,0.00,VWS V14.01,2013-05-15 02:41:00,
2013-05-14 20:42:00,68.5,38.4,30.02,NW,316,0.0,0.0,33,0.00,,---,0.00,VWS V14.01,2013-05-15 02:42:00,
2013-05-14 20:43:00,68.3,38.4,30.02,NW,316,0.0,0.0,33,0.00,,---,0.00,VWS V14.01,2013-05-15 02:43:00,
2013-05-14 20:44:00,68.3,38.3,30.02,NW,316,0.0,0.0,33,0.00,,---,0.00,VWS V14.01,2013-05-15 02:44:00,
2013-05-14 20:45:00,68.3,38.3,30.02,NW,316,0.0,0.0,33,0.00,,---,0.00,VWS V14.01,2013-05-15 02:45:00,
2013-05-14 20:46:00,68.2,38.3,30.02,NW,316,0.0,0.0,33,0.00,,---,0.00,VWS V14.01,2013-05-15 02:46:00,
2013-05-14 20:47:00,68.4,38.3,30.02,NW,316,0.0,0.0,33,0.00,,---,0.00,VWS V14.01,2013-05-15 02:47:00,
2013-05-14 20:48:00,68.2,38.4,30.02,NW,316,0.0,0.0,34,0.00,,---,0.00,VWS V14.01,2013-05-15 02:48:00,
2013-05-14 20:49:00,68.1,38.3,30.02,NW,316,0.0,0.0,34,0.00,,---,0.00,VWS V14.01,2013-05-15 02:49:00,
2013-05-14 20:50:00,68.1,38.4,30.02,NW,316,0.0,0.0,34,0.00,,---,0.00,VWS V14.01,2013-05-15 02:50:00,
2013-05-14 20:51:00,68.1,38.3,30.02,NW,316,0.0,0.0,34,0.00,,---,0.00,VWS V14.01,2013-05-15 02:51:00,
2013-05-14 20:52:00,68.0,38.2,30.02,NW,316,0.0,0.0,34,0.00,,---,0.00,VWS V14.01,2013-05-15 02:52:00,
2013-05-14 20:53:00,68.0,38.3,30.02,NW,316,0.0,0.0,34,0.00,,---,0.00,VWS V14.01,2013-05-15 02:53:00,
2013-05-14 20:54:00,67.9,38.2,30.02,NW,316,0.0,0.0,34,0.00,,---,0.00,VWS V14.01,2013-05-15 02:54:00,
2013-05-14 20:55:00,68.0,38.5,30.02,NW,316,0.0,0.0,34,0.00,,---,0.00,VWS V14.01,2013-05-15 02:55:00,
2013-05-14 20:56:00,67.9,38.4,30.02,NW,316,0.0,0.0,34,0.00,,---,0.00,VWS V14.01,2013-05-15 02:56:00,
2013-05-14 20:57:00,67.9,38.4,30.02,NW,316,0.0,0.0,34,0.00,,---,0.00,VWS V14.01,2013-05-15 02:57:00,
2013-05-14 20:58:00,67.8,38.4,30.02,NW,316,0.0,0.0,34,0.00,,---,0.00,VWS V14.01,2013-05-15 02:58:00,
2013-05-14 20:59:00,67.8,38.4,30.02,NW,316,0.0,0.0,34,0.00,,---,0.00,VWS V14.01,2013-05-15 02:59:00,
2013-05-14 21:00:00,67.8,38.2,30.02,NW,316,0.0,0.0,34,0.00,,---,0.00,VWS V14.01,2013-05-15 03:00:00,
2013-05-14 21:01:00,67.8,38.1,30.02,NW,316,0.0,0.0,34,0.00,,---,0.00,VWS V14.01,2013-05-15 03:01:00,
2013-05-14 21:02:00,67.8,38.1,30.02,NW,316,0.0,0.0,34,0.00,,---,0.00,VWS V14.01,2013-05-15 03:02:00,
2013-05-14 21:03:00,67.8,37.9,30.02,NW,316,0.0,0.0,33,0.00,,---,0.00,VWS V14.01,2013-05-15 03:03:00,
2013-05-14 21:04:00,67.9,37.8,30.02,NW,316,0.0,0.0,33,0.00,,---,0.00,VWS V14.01,2013-05-15 03:04:00,
2013-05-14 21:05:00,67.8,37.8,30.02,NW,316,0.0,0.0,33,0.00,,---,0.00,VWS V14.01,2013-05-15 03:05:00,
2013-05-14 21:06:00,67.9,37.8,30.02,NW,316,0.0,0.0,33,0.00,,---,0.00,VWS V14.01,2013-05-15 03:06:00,
2013-05-14 21:07:00,67.9,37.8,30.02,NW,316,0.0,0.0,33,0.00,,---,0.00,VWS V14.01,2013-05-15 03:07:00,
2013-05-14 21:08:00,67.9,37.6,30.02,NW,316,0.0,0.0,33,0.00,,---,0.00,VWS V14.01,2013-05-15 03:08:00,
2013-05-14 21:09:00,67.9,37.6,30.02,NW,316,0.0,0.0,33,0.00,,---,0.00,VWS V14.01,2013-05-15 03:09:00,
2013-05-14 21:10:00,68.0,37.9,30.02,NW,316,0.0,0.0,33,0.00,,---,0.00,VWS V14.01,2013-05-15 03:10:00,
2013-05-14 21:11:00,68.0,38.0,30.02,NW,316,0.0,0.0,33,0.00,,---,0.00,VWS V14.01,2013-05-15 03:11:00,
2013-05-14 21:12:00,67.9,38.2,30.02,NW,316,0.0,0.0,34,0.00,,---,0.00,VWS V14.01,2013-05-15 03:12:00,
2013-05-14 21:13:00,67.9,37.9,30.02,NW,316,0.0,0.0,33,0.00,,---,0.00,VWS V14.01,2013-05-15 03:13:00,
2013-05-14 21:14:00,68.0,37.6,30.02,NW,316,0.0,0.0,33,0.00,,---,0.00,VWS V14.01,2013-05-15 03:14:00,
2013-05-14 21:15:00,68.0,37.4,30.02,NW,316,0.0,0.0,32,0.00,,---,0.00,VWS V14.01,2013-05-15 03:15:00,
2013-05-14 21:16:00,68.0,37.5,30.02,NW,316,0.0,0.0,32,0.00,,---,0.00,VWS V14.01,2013-05-15 03:16:00,
2013-05-14 21:17:00,68.0,37.4,30.02,NW,316,0.0,0.0,32,0.00,,---,0.00,VWS V14.01,2013-05-15 03:17:00,
2013-05-14 21:18:00,68.0,37.4,30.02,NW,316,0.0,0.0,32,0.00,,---,0.00,VWS V14.01,2013-05-15 03:18:00,
2013-05-14 21:19:00,68.0,37.4,30.02,NW,316,0.0,0.0,32,0.00,,---,0.00,VWS V14.01,2013-05-15 03:19:00,
2013-05-14 21:20:00,67.9,37.3,30.02,NW,316,0.0,0.0,32,0.00,,---,0.00,VWS V14.01,2013-05-15 03:20:00,
2013-05-14 21:21:00,67.9,37.2,30.02,NW,316,0.0,0.0,32,0.00,,---,0.00,VWS V14.01,2013-05-15 03:21:00,
2013-05-14 21:22:00,67.9,37.2,30.02,NW,316,0.0,0.0,32,0.00,,---,0.00,VWS V14.01,2013-05-15 03:22:00,
2013-05-14 21:23:00,67.9,37.2,30.02,NW,316,0.0,0.0,32,0.00,,---,0.00,VWS V14.01,2013-05-15 03:23:00,
2013-05-14 21:24:00,67.9,37.2,30.02,NW,316,0.0,0.0,32,0.00,,---,0.00,VWS V14.01,2013-05-15 03:24:00,
2013-05-14 21:25:00,68.0,37.4,30.02,NW,316,0.0,0.0,32,0.00,,---,0.00,VWS V14.01,2013-05-15 03:25:00,
2013-05-14 21:26:00,68.0,37.5,30.02,NW,316,0.0,0.0,32,0.00,,---,0.00,VWS V14.01,2013-05-15 03:26:00,
2013-05-14 21:27:00,67.9,37.8,30.02,NW,316,0.0,0.0,33,0.00,,---,0.00,VWS V14.01,2013-05-15 03:27:00,
2013-05-14 21:28:00,67.9,37.9,30.02,NW,316,0.0,0.0,33,0.00,,---,0.00,VWS V14.01,2013-05-15 03:28:00,
2013-05-14 21:29:00,67.9,37.9,30.02,NW,316,0.0,0.0,33,0.00,,---,0.00,VWS V14.01,2013-05-15 03:29:00,
2013-05-14 21:30:00,67.8,37.7,30.02,NW,316,0.0,0.0,33,0.00,,---,0.00,VWS V14.01,2013-05-15 03:30:00,
2013-05-14 21:31:00,67.8,37.6,30.02,NW,316,0.0,0.0,33,0.00,,---,0.00,VWS V14.01,2013-05-15 03:31:00,
2013-05-14 21:32:00,67.8,37.6,30.02,NW,316,0.0,0.0,33,0.00,,---,0.00,VWS V14.01,2013-05-15 03:32:00,
2013-05-14 21:33:00,67.8,37.6,30.02,NW,316,0.0,0.0,33,0.00,,---,0.00,VWS V14.01,2013-05-15 03:33:00,
2013-05-14 21:34:00,67.8,37.5,30.02,NW,316,0.0,0.0,33,0.00,,---,0.00,VWS V14.01,2013-05-15 03:34:00,
2013-05-14 21:35:00,67.8,37.6,30.02,NW,316,0.0,0.0,33,0.00,,---,0.00,VWS V14.01,2013-05-15 03:35:00,
2013-05-14 21:36:00,67.7,37.5,30.02,NW,316,0.0,0.0,33,0.00,,---,0.00,VWS V14.01,2013-05-15 03:36:00,
2013-05-14 21:37:00,67.7,37.6,30.02,NW,316,0.0,0.0,33,0.00,,---,0.00,VWS V14.01,2013-05-15 03:37:00,
2013-05-14 21:38:00,67.6,37.6,30.02,NW,316,0.0,0.0,33,0.00,,---,0.00,VWS V14.01,2013-05-15 03:38:00,
2013-05-14 21:39:00,67.7,37.7,30.02,NW,316,0.0,0.0,33,0.00,,---,0.00,VWS V14.01,2013-05-15 03:39:00,
2013-05-14 21:40:00,67.6,37.7,30.02,NW,316,0.0,0.0,33,0.00,,---,0.00,VWS V14.01,2013-05-15 03:40:00,
2013-05-14 21:41:00,67.6,37.7,30.02,NW,316,0.0,0.0,33,0.00,,---,0.00,VWS V14.01,2013-05-15 03:41:00,
2013-05-14 21:42:00,67.5,37.6,30.02,NW,316,0.0,0.0,33,0.00,,---,0.00,VWS V14.01,2013-05-15 03:42:00,
2013-05-14 21:43:00,67.5,37.6,30.02,NW,316,0.0,0.0,33,0.00,,---,0.00,VWS V14.01,2013-05-15 03:43:00,
2013-05-14 21:44:00,67.5,37.7,30.02,NW,316,0.0,0.0,33,0.00,,---,0.00,VWS V14.01,2013-05-15 03:44:00,
2013-05-14 21:45:00,67.5,38.2,30.02,NW,316,0.0,0.0,34,0.00,,---,0.00,VWS V14.01,2013-05-15 03:45:00,
2013-05-14 21:46:00,67.5,38.3,30.02,NW,316,0.0,0.0,34,0.00,,---,0.00,VWS V14.01,2013-05-15 03:46:00,
2013-05-14 21:47:00,67.5,38.5,30.02,NW,316,0.0,0.0,34,0.00,,---,0.00,VWS V14.01,2013-05-15 03:47:00,
2013-05-14 21:48:00,67.5,38.5,30.02,NW,316,0.0,0.0,34,0.00,,---,0.00,VWS V14.01,2013-05-15 03:48:00,
2013-05-14 21:49:00,67.5,38.1,30.02,NW,316,0.0,0.0,34,0.00,,---,0.00,VWS V14.01,2013-05-15 03:49:00,
2013-05-14 21:50:00,67.4,37.9,30.02,NW,316,0.0,0.0,34,0.00,,---,0.00,VWS V14.01,2013-05-15 03:50:00,
2013-05-14 21:51:00,67.4,37.9,30.02,NW,316,0.0,0.0,34,0.00,,---,0.00,VWS V14.01,2013-05-15 03:51:00,
2013-05-14 21:52:00,67.4,37.9,30.02,NW,316,0.0,0.0,34,0.00,,---,0.00,VWS V14.01,2013-05-15 03:52:00,
2013-05-14 21:53:00,67.4,38.0,30.02,NW,316,0.0,0.0,34,0.00,,---,0.00,VWS V14.01,2013-05-15 03:53:00,
2013-05-14 21:54:00,67.4,37.9,30.02,NW,316,0.0,0.0,34,0.00,,---,0.00,VWS V14.01,2013-05-15 03:54:00,
2013-05-14 21:55:00,67.3,37.8,30.02,NW,316,0.0,0.0,34,0.00,,---,0.00,VWS V14.01,2013-05-15 03:55:00,
2013-05-14 21:56:00,67.3,37.8,30.02,NW,316,0.0,0.0,34,0.00,,---,0.00,VWS V14.01,2013-05-15 03:56:00,
2013-05-14 21:57:00,67.3,37.8,30.02,NW,316,0.0,0.0,34,0.00,,---,0.00,VWS V14.01,2013-05-15 03:57:00,
2013-05-14 21:58:00,67.3,37.7,30.02,NW,316,0.0,0.0,34,0.00,,---,0.00,VWS V14.01,2013-05-15 03:58:00,
2013-05-14 21:59:00,67.2,37.6,30.02,NW,316,0.0,0.0,34,0.00,,---,0.00,VWS V14.01,2013-05-15 03:59:00,
2013-05-14 22:00:00,67.2,37.6,30.02,NW,316,0.0,0.0,34,0.00,,---,0.00,VWS V14.01,2013-05-15 04:00:00,
2013-05-14 22:01:00,67.2,37.6,30.02,NW,316,0.0,0.0,34,0.00,,---,0.00,VWS V14.01,2013-05-15 04:01:00,
2013-05-14 22:02:00,67.2,38.1,30.02,NW,316,0.0,0.0,34,0.00,,---,0.00,VWS V14.01,2013-05-15 04:02:00,
2013-05-14 22:03:00,67.2,38.4,30.02,NW,316,0.0,13.2,35,0.00,,---,99.99,VWS V14.01,2013-05-15 04:03:00,
2013-05-14 22:04:00,67.2,38.5,30.02,NW,316,0.0,13.2,35,0.00,,---,2.12,VWS V14.01,2013-05-15 04:04:00,
2013-05-14 22:05:00,67.2,38.7,30.02,NW,316,0.0,13.2,35,0.00,,---,0.00,VWS V14.01,2013-05-15 04:05:00,
2013-05-14 22:06:00,67.2,38.7,30.02,NW,316,0.0,0.0,35,0.00,,---,0.00,VWS V14.01,2013-05-15 04:06:00,
2013-05-14 22:07:00,67.3,38.5,30.02,NW,316,0.0,13.2,35,0.00,,---,0.00,VWS V14.01,2013-05-15 04:07:00,
2013-05-14 22:08:00,67.2,38.2,30.02,NW,316,0.0,13.2,34,0.00,,---,0.00,VWS V14.01,2013-05-15 04:08:00,
2013-05-14 22:09:00,67.3,38.1,30.02,NW,316,0.0,10.3,34,0.00,,---,99.99,VWS V14.01,2013-05-15 04:09:00,
2013-05-14 22:10:00,67.2,38.0,30.02,NW,316,0.0,13.2,34,0.00,,---,0.00,VWS V14.01,2013-05-15 04:10:00,
2013-05-14 22:11:00,67.2,38.2,30.02,NW,316,0.0,13.2,34,0.00,,---,0.00,VWS V14.01,2013-05-15 04:11:00,
2013-05-14 22:12:00,67.2,38.3,30.02,NW,316,0.0,10.5,34,0.00,,---,0.00,VWS V14.01,2013-05-15 04:12:00,
2013-05-14 22:13:00,67.1,38.3,30.02,NW,316,0.0,13.2,35,0.00,,---,0.00,VWS V14.01,2013-05-15 04:13:00,
2013-05-14 22:14:00,70.7,41.6,0.00,WSW,255,0.0,13.2,35,0.00,,---,0.00,VWS V14.01,2013-05-15 04:14:00,
2013-05-14 22:15:00,67.0,38.5,30.02,NW,316,0.0,13.2,35,0.00,,---,0.00,VWS V14.01,2013-05-15 04:15:00,
2013-05-14 22:16:00,67.0,38.5,30.02,NW,316,0.0,13.2,35,0.00,,---,2.12,VWS V14.01,2013-05-15 04:16:00,
2013-05-14 22:17:00,11.8,-10.4,0.00,North,0,11.0,13.2,35,0.00,,---,0.00,VWS V14.01,2013-05-15 04:17:00,
2013-05-14 22:18:00,66.9,38.6,30.02,NW,316,0.0,13.2,35,0.00,,---,99.99,VWS V14.01,2013-05-15 04:18:00,
2013-05-14 22:19:00,11.8,-10.4,0.00,North,0,10.9,10.9,35,0.00,,---,0.00,VWS V14.01,2013-05-15 04:19:00,
2013-05-14 22:20:00,66.9,38.6,30.01,NW,316,0.0,13.2,35,0.00,,---,2.12,VWS V14.01,2013-05-15 04:20:00,
2013-05-14 22:21:00,66.8,38.7,30.02,NW,316,0.0,13.2,36,0.00,,---,0.00,VWS V14.01,2013-05-15 04:21:00,
2013-05-14 22:22:00,66.8,38.8,0.00,NW,316,0.0,0.0,36,0.00,,---,2.12,VWS V14.01,2013-05-15 04:22:00,
2013-05-14 22:23:00,66.7,39.1,30.02,NW,316,0.0,11.6,36,0.00,,---,0.00,VWS V14.01,2013-05-15 04:23:00,
2013-05-14 22:24:00,66.7,39.1,30.01,NW,316,0.0,13.2,36,0.00,,---,0.00,VWS V14.01,2013-05-15 04:24:00,
2013-05-14 22:25:00,66.7,39.2,30.01,NW,316,0.0,11.7,36,0.00,,---,0.00,VWS V14.01,2013-05-15 04:25:00,
2013-05-14 22:26:00,70.3,42.4,0.00,WSW,250,0.0,13.2,36,0.00,,---,0.00,VWS V14.01,2013-05-15 04:26:00,
2013-05-14 22:27:00,70.4,42.5,0.00,NW,316,0.0,13.2,36,0.00,,---,99.99,VWS V14.01,2013-05-15 04:27:00,
2013-05-14 22:28:00,66.5,39.2,0.00,NW,316,0.0,13.2,37,0.00,,---,2.12,VWS V14.01,2013-05-15 04:28:00,
2013-05-14 22:29:00,11.8,-9.6,0.00,North,0,0.0,13.2,37,0.00,,---,0.00,VWS V14.01,2013-05-15 04:29:00,
2013-05-14 22:30:00,66.4,39.3,30.01,NW,316,0.0,13.2,37,0.00,,---,0.00,VWS V14.01,2013-05-15 04:30:00,
2013-05-14 22:31:00,66.4,39.2,30.01,NW,316,0.0,0.0,37,0.00,,---,0.00,VWS V14.01,2013-05-15 04:31:00,
2013-05-14 22:32:00,66.3,39.4,30.01,NW,316,0.0,13.2,37,0.00,,---,0.00,VWS V14.01,2013-05-15 04:32:00,
2013-05-14 22:33:00,66.2,39.4,30.01,NW,316,0.0,13.2,37,0.00,,---,0.00,VWS V14.01,2013-05-15 04:33:00,
2013-05-14 22:34:00,66.2,39.3,30.01,NW,316,0.0,0.0,37,0.00,,---,0.00,VWS V14.01,2013-05-15 04:34:00,
2013-05-14 22:35:00,66.2,21.0,30.01,NW,316,0.0,12.3,18,0.00,,---,99.99,VWS V14.01,2013-05-15 04:35:00,
2013-05-14 22:36:00,66.0,39.3,30.01,NW,316,0.0,12.4,38,0.00,,---,2.12,VWS V14.01,2013-05-15 04:36:00,
2013-05-14 22:37:00,65.9,39.5,30.01,NW,316,0.0,13.2,38,0.00,,---,0.00,VWS V14.01,2013-05-15 04:37:00,
2013-05-14 22:38:00,65.9,39.6,30.01,NW,316,0.0,13.2,38,0.00,,---,0.00,VWS V14.01,2013-05-15 04:38:00,
2013-05-14 22:39:00,65.8,39.7,30.01,NW,316,0.0,13.2,38,0.00,,---,0.00,VWS V14.01,2013-05-15 04:39:00,
2013-05-14 22:40:00,65.8,39.7,30.01,NW,316,0.0,13.2,38,0.00,,---,0.00,VWS V14.01,2013-05-15 04:40:00,
2013-05-14 22:41:00,65.8,39.8,30.01,NW,316,0.0,0.0,38,0.00,,---,0.00,VWS V14.01,2013-05-15 04:41:00,
2013-05-14 22:42:00,65.7,40.0,30.01,NW,316,0.0,13.2,39,0.00,,---,99.99,VWS V14.01,2013-05-15 04:42:00,
2013-05-14 22:43:00,11.8,-8.3,0.00,North,0,0.0,13.2,39,0.00,,---,0.00,VWS V14.01,2013-05-15 04:43:00,
2013-05-14 22:44:00,65.7,40.2,30.01,NW,316,0.0,13.2,39,0.00,,---,0.00,VWS V14.01,2013-05-15 04:44:00,
2013-05-14 22:45:00,70.2,44.2,0.00,NW,316,13.2,13.2,39,0.00,,---,0.00,VWS V14.01,2013-05-15 04:45:00,
2013-05-14 22:46:00,65.6,40.3,30.01,NW,316,0.0,13.2,39,0.00,,---,0.00,VWS V14.01,2013-05-15 04:46:00,
2013-05-14 22:47:00,70.4,44.5,0.00,NW,316,13.2,13.2,39,0.00,,---,0.00,VWS V14.01,2013-05-15 04:47:00,
2013-05-14 22:56:00,67.2,37.7,30.02,NW,316,0.0,0.0,34,0.00,,---,0.00,VWS V14.01,2013-05-15 04:56:00,
2013-05-14 23:32:00,66.7,39.1,30.01,NW,316,0.0,11.6,36,0.00,,---,13.45,VWS V14.01,2013-05-15 05:32:00,
2013-05-14 23:39:00,66.4,38.0,30.10,SSW,202,0.0,0.0,35,0.00,,---,0.00,VWS V14.01,2013-05-15 05:39:00,
2013-05-14 23:41:00,66.4,38.3,30.10,SSW,202,0.0,0.0,36,0.00,,---,0.00,VWS V14.01,2013-05-15 05:41:00,
2013-05-14 23:42:00,66.3,38.3,30.10,SSW,202,0.0,0.0,36,0.00,,---,0.00,VWS V14.01,2013-05-15 05:42:00,
2013-05-14 23:43:00,66.2,38.3,30.10,SSW,202,0.0,0.0,36,0.00,,---,0.00,VWS V14.01,2013-05-15 05:43:00,
2013-05-14 23:44:00,66.1,38.2,30.10,SSW,202,0.0,0.0,36,0.00,,---,0.00,VWS V14.01,2013-05-15 05:44:00,
2013-05-14 23:45:00,65.9,38.0,30.10,SSW,202,0.0,0.0,36,0.00,,---,0.00,VWS V14.01,2013-05-15 05:45:00,
2013-05-14 23:47:00,65.8,38.1,30.10,SSW,202,0.0,0.0,36,0.00,,---,0.00,VWS V14.01,2013-05-15 05:47:00,
2013-05-14 23:48:00,65.8,38.3,30.10,SSW,202,0.0,0.0,36,0.00,,---,0.00,VWS V14.01,2013-05-15 05:48:00,
2013-05-14 23:49:00,65.7,38.1,30.10,SSW,202,0.0,0.0,36,0.00,,---,0.00,VWS V14.01,2013-05-15 05:49:00,
2013-05-14 23:51:00,65.6,38.0,30.10,SSW,202,0.0,0.0,36,0.00,,---,0.00,VWS V14.01,2013-05-15 05:51:00,
2013-05-14 23:53:00,65.5,37.9,30.10,SSW,202,0.0,0.0,36,0.00,,---,0.00,VWS V14.01,2013-05-15 05:53:00,
2013-05-14 23:54:00,65.7,39.8,30.01,NW,316,0.0,0.0,38,0.00,,---,99.99,VWS V14.01,2013-05-15 05:54:00,
2013-05-14 23:56:00,65.4,37.7,30.10,SSW,202,0.0,0.0,36,0.00,,---,0.00,VWS V14.01,2013-05-15 05:56:00,
2013-05-14 23:59:00,65.5,29.9,30.01,NW,316,0.0,13.2,26,0.00,,---,99.99,VWS V14.01,2013-05-15 05:59:00,